Time,TemperatureF,DewpointF,PressureIn,WindDirection,WindDirectionDegrees,WindSpeedMPH,WindSpeedGustMPH,Humidity,HourlyPrecipIn,Conditions,Clouds,dailyrainin,SoftwareType,DateUTC
2013-03-25 00:09:00,24.3,19.5,29.74,SSW,207,0.9,2.0,79,0.00,,,0.00,WSDL version 420,2013-03-25 04:09:00,
2013-03-25 00:24:00,24.0,19.3,29.74,SW,230,0.0,0.0,80,0.00,,,0.00,WSDL version 420,2013-03-25 04:24:00,
2013-03-25 00:39:00,23.8,19.5,29.71,SW,230,0.0,1.6,81,0.00,,,0.00,WSDL version 420,2013-03-25 04:39:00,
2013-03-25 00:54:00,23.8,19.6,29.74,SSW,207,0.0,1.3,82,0.00,,,0.00,WSDL version 420,2013-03-25 04:54:00,
2013-03-25 01:09:00,23.8,19.6,29.74,South,185,0.0,0.0,81,0.00,,,0.00,WSDL version 420,2013-03-25 05:09:00,
2013-03-25 01:24:00,23.9,19.5,29.74,SSW,207,0.3,1.6,81,0.00,,,0.00,WSDL version 420,2013-03-25 05:24:00,
2013-03-25 01:39:00,23.5,19.4,29.74,WSW,238,0.0,2.0,82,0.00,,,0.00,WSDL version 420,2013-03-25 05:39:00,
2013-03-25 01:54:00,23.4,19.3,29.71,South,185,0.0,1.3,82,0.00,,,0.00,WSDL version 420,2013-03-25 05:54:00,
2013-03-25 02:09:00,23.3,19.4,29.74,SW,230,2.0,2.9,83,0.00,,,0.00,WSDL version 420,2013-03-25 06:09:00,
2013-03-25 02:24:00,23.0,19.1,29.74,SW,230,1.9,2.7,83,0.00,,,0.00,WSDL version 420,2013-03-25 06:24:00,
2013-03-25 02:39:00,23.3,19.9,29.74,WSW,252,2.2,2.7,86,0.00,,,0.00,WSDL version 420,2013-03-25 06:39:00,
2013-03-25 02:54:00,24.3,21.2,29.74,West,275,0.3,2.5,87,0.00,,,0.00,WSDL version 420,2013-03-25 06:54:00,
2013-03-25 03:09:00,25.0,22.0,29.74,WSW,258,1.4,2.5,87,0.00,,,0.00,WSDL version 420,2013-03-25 07:09:00,
2013-03-25 03:24:00,25.2,21.7,29.74,West,267,0.3,2.0,84,0.00,,,0.00,WSDL version 420,2013-03-25 07:24:00,
2013-03-25 03:39:00,24.5,20.9,29.74,WSW,258,0.3,2.2,84,0.00,,,0.00,WSDL version 420,2013-03-25 07:39:00,
2013-03-25 03:54:00,23.9,20.4,29.74,SW,230,1.2,1.6,84,0.00,,,0.00,WSDL version 420,2013-03-25 07:54:00,
2013-03-25 04:09:00,23.5,20.0,29.74,SW,230,2.2,2.9,84,0.00,,,0.00,WSDL version 420,2013-03-25 08:09:00,
2013-03-25 04:24:00,23.5,20.1,29.74,SW,230,1.1,2.5,84,0.00,,,0.00,WSDL version 420,2013-03-25 08:24:00,
2013-03-25 04:39:00,23.0,20.0,29.71,WSW,249,1.8,2.5,87,0.00,,,0.00,WSDL version 420,2013-03-25 08:39:00,
2013-03-25 04:54:00,22.6,19.7,29.71,SW,230,1.7,2.5,87,0.00,,,0.00,WSDL version 420,2013-03-25 08:54:00,
2013-03-25 05:09:00,22.8,20.0,29.71,WSW,246,1.9,2.7,88,0.00,,,0.00,WSDL version 420,2013-03-25 09:09:00,
2013-03-25 05:24:00,22.8,20.6,29.68,SW,230,1.4,2.7,90,0.00,,,0.00,WSDL version 420,2013-03-25 09:24:00,
2013-03-25 05:39:00,22.8,20.6,29.68,WSW,258,2.9,3.4,90,0.00,,,0.00,WSDL version 420,2013-03-25 09:39:00,
2013-03-25 05:54:00,23.2,21.0,29.68,WSW,237,2.7,3.4,90,0.00,,,0.00,WSDL version 420,2013-03-25 09:54:00,
2013-03-25 06:09:00,23.3,21.1,29.68,West,263,3.5,6.3,90,0.00,,,0.00,WSDL version 420,2013-03-25 10:09:00,
2013-03-25 06:24:00,23.7,21.5,29.68,West,266,3.3,4.7,90,0.00,,,0.00,WSDL version 420,2013-03-25 10:24:00,
2013-03-25 06:39:00,23.9,21.7,29.65,SW,230,2.5,3.6,90,0.00,,,0.00,WSDL version 420,2013-03-25 10:39:00,
2013-03-25 06:54:00,23.7,21.5,29.68,West,275,2.1,3.1,90,0.00,,,0.00,WSDL version 420,2013-03-25 10:54:00,
2013-03-25 07:09:00,24.8,22.6,29.65,WSW,252,1.3,1.6,90,0.00,,,0.00,WSDL version 420,2013-03-25 11:09:00,
2013-03-25 07:24:00,26.9,24.5,29.65,West,279,2.7,3.6,89,0.00,,,0.00,WSDL version 420,2013-03-25 11:24:00,
2013-03-25 07:39:00,29.1,25.7,29.68,WNW,286,3.1,4.9,84,0.00,,,0.00,WSDL version 420,2013-03-25 11:39:00,
2013-03-25 07:54:00,30.5,25.3,29.68,NNW,342,3.6,5.8,78,0.00,,,0.00,WSDL version 420,2013-03-25 11:54:00,
2013-03-25 08:09:00,31.7,26.0,29.68,North,5,2.0,5.4,77,0.00,,,0.00,WSDL version 420,2013-03-25 12:09:00,
2013-03-25 08:24:00,32.4,24.9,29.71,NNW,342,3.9,5.6,73,0.00,,,0.00,WSDL version 420,2013-03-25 12:24:00,
2013-03-25 08:39:00,32.8,24.3,29.68,NNW,333,2.5,5.6,71,0.00,,,0.00,WSDL version 420,2013-03-25 12:39:00,
2013-03-25 08:54:00,33.3,24.4,29.68,North,356,3.8,6.3,70,0.00,,,0.00,WSDL version 420,2013-03-25 12:54:00,
2013-03-25 09:09:00,34.4,24.7,29.68,NNE,16,3.4,6.9,67,0.00,,,0.00,WSDL version 420,2013-03-25 13:09:00,
2013-03-25 09:24:00,34.7,24.1,29.68,NNW,333,4.8,7.8,65,0.00,,,0.00,WSDL version 420,2013-03-25 13:24:00,
2013-03-25 09:40:00,35.7,23.6,29.68,NNW,338,3.1,6.3,61,0.00,,,0.00,WSDL version 420,2013-03-25 13:40:00,
2013-03-25 09:55:00,37.4,25.5,29.68,NE,42,2.1,5.4,62,0.00,,,0.00,WSDL version 420,2013-03-25 13:55:00,
2013-03-25 10:10:00,37.8,23.1,29.68,NE,47,3.0,7.2,55,0.00,,,0.00,WSDL version 420,2013-03-25 14:10:00,
2013-03-25 10:25:00,37.8,22.1,29.65,NE,47,3.0,6.5,52,0.00,,,0.00,WSDL version 420,2013-03-25 14:25:00,
2013-03-25 10:40:00,37.8,21.5,29.68,ENE,72,3.9,7.4,52,0.00,,,0.00,WSDL version 420,2013-03-25 14:40:00,
2013-03-25 10:55:00,38.3,21.8,29.68,East,87,4.0,8.9,51,0.00,,,0.00,WSDL version 420,2013-03-25 14:55:00,
2013-03-25 11:10:00,39.1,22.0,29.65,NNE,14,4.4,7.4,50,0.00,,,0.00,WSDL version 420,2013-03-25 15:10:00,
2013-03-25 11:25:00,39.8,22.2,29.65,NNE,20,5.0,10.3,49,0.00,,,0.00,WSDL version 420,2013-03-25 15:25:00,
2013-03-25 11:40:00,40.2,22.6,29.65,NE,50,4.1,7.4,49,0.00,,,0.00,WSDL version 420,2013-03-25 15:40:00,
2013-03-25 11:55:00,39.4,21.1,29.65,NE,37,4.3,10.3,47,-99.99,,,-99.99,WSDL version 420,2013-03-25 15:55:00,
2013-03-25 12:10:00,39.8,21.6,29.62,North,358,4.3,10.5,48,-99.99,,,-99.99,WSDL version 420,2013-03-25 16:10:00,
2013-03-25 12:25:00,40.5,21.8,29.62,NE,35,2.1,9.2,48,-99.99,,,-99.99,WSDL version 420,2013-03-25 16:25:00,
2013-03-25 12:40:00,40.8,22.0,29.59,North,10,4.1,9.6,47,-99.99,,,-99.99,WSDL version 420,2013-03-25 16:40:00,
2013-03-25 12:55:00,41.4,20.6,29.62,ENE,66,5.7,9.8,43,-99.99,,,-99.99,WSDL version 420,2013-03-25 16:55:00,
2013-03-25 13:10:00,40.8,20.0,29.62,NE,50,4.4,12.1,43,-99.99,,,-99.99,WSDL version 420,2013-03-25 17:10:00,
2013-03-25 13:25:00,40.8,20.4,29.62,North,353,7.1,8.5,43,-99.99,,,-99.99,WSDL version 420,2013-03-25 17:25:00,
2013-03-25 13:40:00,40.9,20.2,29.62,NNW,348,6.0,9.8,44,-99.99,,,-99.99,WSDL version 420,2013-03-25 17:40:00,
2013-03-25 13:55:00,41.8,20.4,29.59,ENE,59,5.6,10.7,42,-99.99,,,-99.99,WSDL version 420,2013-03-25 17:55:00,
2013-03-25 14:10:00,41.8,19.8,29.56,NNE,20,4.0,6.5,41,-99.99,,,-99.99,WSDL version 420,2013-03-25 18:10:00,
2013-03-25 14:25:00,43.1,20.7,29.56,North,10,4.3,10.3,40,-99.99,,,-99.99,WSDL version 420,2013-03-25 18:25:00,
2013-03-25 14:42:00,41.9,19.9,29.56,NE,43,4.2,7.8,41,-99.99,,,-99.99,WSDL version 420,2013-03-25 18:42:00,
2013-03-25 14:57:00,41.3,19.4,29.56,NNE,30,3.8,7.8,41,-99.99,,,-99.99,WSDL version 420,2013-03-25 18:57:00,
2013-03-25 15:12:00,41.0,19.3,29.56,NE,50,3.0,8.5,42,-99.99,,,-99.99,WSDL version 420,2013-03-25 19:12:00,
2013-03-25 15:27:00,40.5,19.0,29.56,NE,53,3.1,5.6,42,-99.99,,,-99.99,WSDL version 420,2013-03-25 19:27:00,
2013-03-25 15:42:00,40.0,18.8,29.56,North,350,4.0,9.8,42,-99.99,,,-99.99,WSDL version 420,2013-03-25 19:42:00,
2013-03-25 15:57:00,39.7,18.6,29.56,NE,46,5.1,8.5,42,-99.99,,,-99.99,WSDL version 420,2013-03-25 19:57:00,
2013-03-25 16:12:00,39.1,18.7,29.56,North,5,4.1,7.4,44,-99.99,,,-99.99,WSDL version 420,2013-03-25 20:12:00,
2013-03-25 16:27:00,38.7,19.2,29.56,North,5,3.5,9.6,45,-99.99,,,-99.99,WSDL version 420,2013-03-25 20:27:00,
2013-03-25 16:42:00,38.5,19.5,29.56,NE,36,2.8,5.4,46,-99.99,,,-99.99,WSDL version 420,2013-03-25 20:42:00,
2013-03-25 16:57:00,38.5,20.0,29.56,NE,35,4.4,7.4,47,-99.99,,,-99.99,WSDL version 420,2013-03-25 20:57:00,
2013-03-25 17:12:00,38.2,20.1,29.53,North,359,4.9,8.5,48,-99.99,,,-99.99,WSDL version 420,2013-03-25 21:12:00,
2013-03-25 17:27:00,37.9,20.5,29.53,North,5,4.0,12.1,49,-99.99,,,-99.99,WSDL version 420,2013-03-25 21:27:00,
2013-03-25 17:42:00,37.9,20.6,29.53,North,350,1.7,7.8,50,-99.99,,,-99.99,WSDL version 420,2013-03-25 21:42:00,
2013-03-25 17:57:00,37.6,20.5,29.53,NNW,339,4.1,6.5,50,-99.99,,,-99.99,WSDL version 420,2013-03-25 21:57:00,
2013-03-25 18:12:00,37.5,20.2,29.53,North,350,3.7,7.4,50,-99.99,,,-99.99,WSDL version 420,2013-03-25 22:12:00,
2013-03-25 18:27:00,37.3,20.4,29.53,NNW,346,2.9,6.3,50,-99.99,,,-99.99,WSDL version 420,2013-03-25 22:27:00,
2013-03-25 18:42:00,36.9,20.0,29.56,ENE,78,2.3,4.7,50,-99.99,,,-99.99,WSDL version 420,2013-03-25 22:42:00,
2013-03-25 18:57:00,36.3,19.9,29.56,East,91,0.3,3.8,51,-99.99,,,-99.99,WSDL version 420,2013-03-25 22:57:00,
2013-03-25 19:12:00,36.0,20.1,29.56,NNE,17,1.3,2.5,52,-99.99,,,-99.99,WSDL version 420,2013-03-25 23:12:00,
2013-03-25 19:27:00,35.4,20.1,29.56,North,5,0.0,2.7,54,-99.99,,,-99.99,WSDL version 420,2013-03-25 23:27:00,
2013-03-25 19:42:00,35.1,20.1,29.53,NW,320,0.0,1.6,54,-99.99,,,-99.99,WSDL version 420,2013-03-25 23:42:00,
2013-03-25 19:57:00,34.8,20.4,29.56,West,260,0.3,2.5,55,-99.99,,,-99.99,WSDL version 420,2013-03-25 23:57:00,
2013-03-25 20:12:00,34.5,20.9,29.56,SSW,207,0.8,1.6,57,-99.99,,,-99.99,WSDL version 420,2013-03-26 00:12:00,
2013-03-25 20:27:00,34.5,20.4,29.56,SW,220,1.6,2.2,56,-99.99,,,-99.99,WSDL version 420,2013-03-26 00:27:00,
2013-03-25 20:42:00,34.5,20.4,29.56,SW,230,0.0,2.0,56,-99.99,,,-99.99,WSDL version 420,2013-03-26 00:42:00,
2013-03-25 20:57:00,34.5,20.4,29.56,West,260,1.8,3.1,56,-99.99,,,-99.99,WSDL version 420,2013-03-26 00:57:00,
2013-03-25 21:12:00,34.6,20.5,29.53,West,278,1.7,2.7,56,-99.99,,,-99.99,WSDL version 420,2013-03-26 01:12:00,
2013-03-25 21:27:00,34.7,20.4,29.56,NW,307,2.4,2.9,55,-99.99,,,-99.99,WSDL version 420,2013-03-26 01:27:00,
2013-03-25 21:42:00,34.9,20.8,29.56,NNW,328,4.2,8.1,56,-99.99,,,-99.99,WSDL version 420,2013-03-26 01:42:00,
2013-03-25 21:57:00,35.1,20.4,29.56,North,359,3.9,15.4,55,-99.99,,,-99.99,WSDL version 420,2013-03-26 01:57:00,
2013-03-25 22:12:00,34.9,20.4,29.56,NNW,331,3.5,8.9,55,-99.99,,,-99.99,WSDL version 420,2013-03-26 02:12:00,
2013-03-25 22:27:00,34.9,20.4,29.56,NNW,347,6.5,12.5,55,-99.99,,,-99.99,WSDL version 420,2013-03-26 02:27:00,
2013-03-25 22:42:00,34.5,20.0,29.56,NNW,332,5.4,10.7,55,-99.99,,,-99.99,WSDL version 420,2013-03-26 02:42:00,
2013-03-25 22:57:00,34.3,20.2,29.56,North,5,4.1,8.5,56,-99.99,,,-99.99,WSDL version 420,2013-03-26 02:57:00,
2013-03-25 23:12:00,34.0,19.9,29.56,NNE,14,4.5,9.8,56,-99.99,,,-99.99,WSDL version 420,2013-03-26 03:12:00,
2013-03-25 23:27:00,33.8,20.2,29.56,NNE,27,4.2,6.9,57,-99.99,,,-99.99,WSDL version 420,2013-03-26 03:27:00,
2013-03-25 23:42:00,33.5,20.3,29.56,North,350,3.4,9.8,58,-99.99,,,-99.99,WSDL version 420,2013-03-26 03:42:00,
2013-03-25 23:57:00,33.3,20.5,29.53,NNE,12,3.2,7.6,59,-99.99,,,-99.99,WSDL version 420,2013-03-26 03:57:00,